Change the Weather History Date:

Sunday, November 25, 2012

  Actual Average Record
Temperature  
Mean Temperature 29 °F 36 °F  
Max Temperature 33 °F 44 °F 64 °F (2004)
Min Temperature 24 °F 28 °F 8 °F (2013)
Degree Days  
Heating Degree Days 36 29  
Month to date heating degree days 678 640  
Since 1 July heating degree days 1288 1461  
Cooling Degree Days 0 0  
Month to date cooling degree days 0 0  
Year to date cooling degree days 476 313  
Moisture  
Dew Point 20 °F    
Average Humidity 64    
Maximum Humidity 78    
Minimum Humidity 50    
Precipitation  
Precipitation T in 0.10 in 0.68 in (2008)
Month to date precipitation 0.78 2.56  
Year to date precipitation 29.64 37.36  
Sea Level Pressure  
Sea Level Pressure 29.81 in    
Wind  
Wind Speed 7 mph (WSW)    
Max Wind Speed 18 mph    
Max Gust Speed 30 mph    
Visibility 10 miles    
Events Snow    
T = Trace of Precipitation, MM = Missing Value Source: NWS Daily Summary

Daily Weather History Graph

Daily Weather History Graph

Search for Another Location

Airport or City:

Trip Planner

Search our weather history database for the weather conditions in past years. The results will help you decide how hot, cold, wet, or windy it might be!

Date:

Astronomy

Nov. 25, 2012 Rise Set
Actual Time 6:57 AM EST 4:22 PM EST
Civil Twilight 6:26 AM EST 4:53 PM EST
Nautical Twilight 5:51 AM EST 5:28 PM EST
Astronomical Twilight 5:17 AM EST 6:02 PM EST
Moon 2:40 PM EST (11/25) 4:06 AM EST (11/25)
Length of Visible Light 10h 26m
Length of Day
9h 24m
Waxing Gibbous, 93% of the Moon is Illuminated
Nov 25
Waxing Gibbous
Nov 28
Full
Dec 6
Last Quarter
Dec 13
New
Dec 20
First Quarter

Hourly Weather History & Observations

Time (EST) Temp. Windchill Dew Point Humidity Pressure Visibility Wind Dir Wind Speed Gust Speed Precip Events Conditions
12:54 AM 28.9 °F 18.6 °F 12.9 °F 51% 29.73 in 10.0 mi WNW 12.7 mph 27.6 mph N/A   Overcast
1:54 AM 28.9 °F 21.9 °F 14.0 °F 54% 29.76 in 10.0 mi NW 6.9 mph 17.3 mph N/A   Overcast
2:54 AM 28.0 °F 19.3 °F 15.1 °F 58% 29.76 in 10.0 mi WNW 9.2 mph 16.1 mph N/A   Scattered Clouds
3:54 AM 27.0 °F - 16.0 °F 63% 29.78 in 10.0 mi Calm Calm - N/A   Mostly Cloudy
4:54 AM 26.1 °F 18.4 °F 15.1 °F 63% 29.80 in 10.0 mi Variable 6.9 mph - N/A   Clear
5:54 AM 25.0 °F 15.5 °F 17.1 °F 72% 29.81 in 10.0 mi SW 9.2 mph - N/A   Clear
6:54 AM 25.0 °F 17.1 °F 16.0 °F 69% 29.82 in 10.0 mi Variable 6.9 mph 17.3 mph N/A   Clear
7:54 AM 26.1 °F 19.4 °F 16.0 °F 66% 29.82 in 10.0 mi Variable 5.8 mph - N/A   Clear
8:54 AM 28.0 °F 18.1 °F 15.1 °F 58% 29.83 in 10.0 mi West 11.5 mph 20.7 mph N/A   Clear
9:54 AM 28.9 °F 20.4 °F 16.0 °F 58% 29.83 in 10.0 mi WSW 9.2 mph - N/A   Clear
10:54 AM 30.9 °F 21.2 °F 16.0 °F 54% 29.81 in 10.0 mi West 12.7 mph 27.6 mph N/A   Clear
11:54 AM 30.9 °F 20.2 °F 17.1 °F 57% 29.79 in 10.0 mi WNW 15.0 mph 25.3 mph N/A   Clear
12:54 PM 30.9 °F 22.8 °F 19.0 °F 61% 29.79 in 10.0 mi WSW 9.2 mph 20.7 mph N/A   Overcast
1:54 PM 32.0 °F 23.6 °F 21.0 °F 64% 29.78 in 10.0 mi West 10.4 mph 17.3 mph 0.00 in   Mostly Cloudy
2:54 PM 32.0 °F 25.6 °F 21.0 °F 64% 29.78 in 10.0 mi Variable 6.9 mph - N/A   Overcast
3:54 PM 32.0 °F 25.6 °F 21.0 °F 64% 29.79 in 10.0 mi West 6.9 mph - N/A   Mostly Cloudy
4:54 PM 30.9 °F 26.2 °F 21.9 °F 69% 29.80 in 10.0 mi WSW 4.6 mph - N/A   Overcast
5:06 PM 30.2 °F 23.4 °F 23.0 °F 75% 29.78 in 4.0 mi Variable 6.9 mph - 0.00 in Snow Light Snow
5:21 PM 30.2 °F 24.3 °F 23.0 °F 75% 29.78 in 5.0 mi WSW 5.8 mph - 0.00 in Snow Light Snow
5:54 PM 30.0 °F - 24.1 °F 79% 29.82 in 10.0 mi Calm Calm - 0.00 in   Overcast
6:54 PM 30.9 °F - 24.1 °F 76% 29.83 in 10.0 mi Calm Calm - N/A   Overcast
7:54 PM 30.0 °F 26.5 °F 25.0 °F 82% 29.83 in 10.0 mi SSW 3.5 mph - 0.00 in   Overcast
8:28 PM 30.2 °F 26.7 °F 24.8 °F 80% 29.81 in 10.0 mi SW 3.5 mph - N/A   Overcast
8:45 PM 30.2 °F - 24.8 °F 80% 29.81 in 10.0 mi Calm Calm - N/A   Overcast
8:54 PM 30.9 °F - 24.1 °F 76% 29.84 in 10.0 mi Calm Calm - N/A   Overcast
9:54 PM 32.0 °F - 24.1 °F 73% 29.85 in 10.0 mi Calm Calm - N/A   Overcast
10:54 PM 32.0 °F 27.5 °F 25.0 °F 75% 29.85 in 10.0 mi SW 4.6 mph - 0.00 in   Overcast
11:54 PM 30.9 °F 27.5 °F 25.0 °F 79% 29.87 in 6.0 mi SW 3.5 mph - 0.00 in Snow Light Snow